Year,Month,Day,Hour,Minute,Value (Times are PST for temperature in C)
2013,05,08,00,00,15.60
2013,05,08,00,01,15.60
2013,05,08,00,02,15.60
2013,05,08,00,03,15.60
2013,05,08,00,04,15.50
2013,05,08,00,05,15.50
2013,05,08,00,06,15.40
2013,05,08,00,07,15.40
2013,05,08,00,08,15.30
2013,05,08,00,09,15.30
2013,05,08,00,10,15.30
2013,05,08,00,11,15.20
2013,05,08,00,12,15.20
2013,05,08,00,13,15.20
2013,05,08,00,14,15.10
2013,05,08,00,15,15.00
2013,05,08,00,16,15.00
2013,05,08,00,17,15.00
2013,05,08,00,18,15.00
2013,05,08,00,19,15.00
2013,05,08,00,20,15.00
2013,05,08,00,21,15.00
2013,05,08,00,22,15.00
2013,05,08,00,23,15.00
2013,05,08,00,24,15.00
2013,05,08,00,25,15.00
2013,05,08,00,26,15.00
2013,05,08,00,27,15.00
2013,05,08,00,28,15.00
2013,05,08,00,29,15.00
2013,05,08,00,30,15.00
2013,05,08,00,31,15.00
2013,05,08,00,32,15.00
2013,05,08,00,33,15.00
2013,05,08,00,34,15.00
2013,05,08,00,35,15.00
2013,05,08,00,36,15.00
2013,05,08,00,37,15.00
2013,05,08,00,38,15.00
2013,05,08,00,39,15.00
2013,05,08,00,40,15.10
2013,05,08,00,41,15.10
2013,05,08,00,42,15.00
2013,05,08,00,43,15.00
2013,05,08,00,44,15.00
2013,05,08,00,45,15.00
2013,05,08,00,46,15.00
2013,05,08,00,47,15.00
2013,05,08,00,48,15.00
2013,05,08,00,49,15.00
2013,05,08,00,50,15.00
2013,05,08,00,51,15.00
2013,05,08,00,52,15.00
2013,05,08,00,53,15.00
2013,05,08,00,54,15.00
2013,05,08,00,55,15.00
2013,05,08,00,56,15.00
2013,05,08,00,57,14.90
2013,05,08,00,58,14.90
2013,05,08,00,59,14.80
2013,05,08,01,00,14.80
2013,05,08,01,01,14.70
2013,05,08,01,02,14.60
2013,05,08,01,03,14.50
2013,05,08,01,04,14.50
2013,05,08,01,05,14.40
2013,05,08,01,06,14.30
2013,05,08,01,07,14.30
2013,05,08,01,08,14.20
2013,05,08,01,09,14.20
2013,05,08,01,10,14.20
2013,05,08,01,11,14.10
2013,05,08,01,12,14.10
2013,05,08,01,13,14.10
2013,05,08,01,14,14.10
2013,05,08,01,15,14.10
2013,05,08,01,16,14.10
2013,05,08,01,17,14.10
2013,05,08,01,18,14.10
2013,05,08,01,19,14.10
2013,05,08,01,20,14.10
2013,05,08,01,21,14.10
2013,05,08,01,22,14.10
2013,05,08,01,23,14.10
2013,05,08,01,24,14.10
2013,05,08,01,25,14.10
2013,05,08,01,26,14.10
2013,05,08,01,27,14.10
2013,05,08,01,28,14.10
2013,05,08,01,29,14.10
2013,05,08,01,30,14.10
2013,05,08,01,31,14.10
2013,05,08,01,32,14.10
2013,05,08,01,33,14.10
2013,05,08,01,34,14.10
2013,05,08,01,35,14.10
2013,05,08,01,36,14.10
2013,05,08,01,37,14.20
2013,05,08,01,38,14.20
2013,05,08,01,39,14.20
2013,05,08,01,40,14.20
2013,05,08,01,41,14.20
2013,05,08,01,42,14.20
2013,05,08,01,43,14.20
2013,05,08,01,44,14.20
2013,05,08,01,45,14.20
2013,05,08,01,46,14.10
2013,05,08,01,47,14.10
2013,05,08,01,48,14.10
2013,05,08,01,49,14.10
2013,05,08,01,50,14.10
2013,05,08,01,51,14.10
2013,05,08,01,52,14.10
2013,05,08,01,53,14.10
2013,05,08,01,54,14.10
2013,05,08,01,55,14.10
2013,05,08,01,56,14.10
2013,05,08,01,57,14.10
2013,05,08,01,58,14.20
2013,05,08,01,59,14.20
2013,05,08,02,00,14.20
2013,05,08,02,01,14.20
2013,05,08,02,02,14.20
2013,05,08,02,03,14.30
2013,05,08,02,04,14.30
2013,05,08,02,05,14.30
2013,05,08,02,06,14.40
2013,05,08,02,07,14.40
2013,05,08,02,08,14.50
2013,05,08,02,09,14.50
2013,05,08,02,10,14.60
2013,05,08,02,11,14.60
2013,05,08,02,12,14.70
2013,05,08,02,13,14.80
2013,05,08,02,14,14.80
2013,05,08,02,15,14.80
2013,05,08,02,16,14.80
2013,05,08,02,17,14.80
2013,05,08,02,18,14.80
2013,05,08,02,19,14.80
2013,05,08,02,20,14.80
2013,05,08,02,21,14.80
2013,05,08,02,22,14.80
2013,05,08,02,23,14.80
2013,05,08,02,24,14.70
2013,05,08,02,25,14.70
2013,05,08,02,26,14.60
2013,05,08,02,27,14.60
2013,05,08,02,28,14.50
2013,05,08,02,29,14.50
2013,05,08,02,30,14.40
2013,05,08,02,31,14.30
2013,05,08,02,32,14.20
2013,05,08,02,33,14.10
2013,05,08,02,34,14.10
2013,05,08,02,35,14.00
2013,05,08,02,36,13.90
2013,05,08,02,37,13.80
2013,05,08,02,38,13.70
2013,05,08,02,39,13.70
2013,05,08,02,40,13.60
2013,05,08,02,41,13.50
2013,05,08,02,42,13.40
2013,05,08,02,43,13.40
2013,05,08,02,44,13.40
2013,05,08,02,45,13.40
2013,05,08,02,46,13.40
2013,05,08,02,47,13.40
2013,05,08,02,48,13.40
2013,05,08,02,49,13.40
2013,05,08,02,50,13.40
2013,05,08,02,51,13.40
2013,05,08,02,52,13.40
2013,05,08,02,53,13.40
2013,05,08,02,54,13.40
2013,05,08,02,55,13.50
2013,05,08,02,56,13.50
2013,05,08,02,57,13.50
2013,05,08,02,58,13.50
2013,05,08,02,59,13.50
2013,05,08,03,00,13.40
2013,05,08,03,01,13.50
2013,05,08,03,02,13.50
2013,05,08,03,03,13.60
2013,05,08,03,04,13.70
2013,05,08,03,05,13.70
2013,05,08,03,06,13.70
2013,05,08,03,07,13.70
2013,05,08,03,08,13.80
2013,05,08,03,09,13.80
2013,05,08,03,10,13.80
2013,05,08,03,11,13.70
2013,05,08,03,12,13.70
2013,05,08,03,13,13.70
2013,05,08,03,14,13.70
2013,05,08,03,15,13.70
2013,05,08,03,16,13.60
2013,05,08,03,17,13.60
2013,05,08,03,18,13.60
2013,05,08,03,19,13.60
2013,05,08,03,20,13.60
2013,05,08,03,21,13.60
2013,05,08,03,22,13.60
2013,05,08,03,23,13.50
2013,05,08,03,24,13.50
2013,05,08,03,25,13.50
2013,05,08,03,26,13.50
2013,05,08,03,27,13.50
2013,05,08,03,28,13.50
2013,05,08,03,29,13.50
2013,05,08,03,30,13.50
2013,05,08,03,31,13.40
2013,05,08,03,32,13.40
2013,05,08,03,33,13.40
2013,05,08,03,34,13.40
2013,05,08,03,35,13.30
2013,05,08,03,36,13.30
2013,05,08,03,37,13.30
2013,05,08,03,38,13.30
2013,05,08,03,39,13.30
2013,05,08,03,40,13.20
2013,05,08,03,41,13.20
2013,05,08,03,42,13.20
2013,05,08,03,43,13.20
2013,05,08,03,44,13.10
2013,05,08,03,45,13.10
2013,05,08,03,46,13.00
2013,05,08,03,47,13.00
2013,05,08,03,48,12.90
2013,05,08,03,49,12.90
2013,05,08,03,50,12.80
2013,05,08,03,51,12.80
2013,05,08,03,52,12.80
2013,05,08,03,53,12.70
2013,05,08,03,54,12.70
2013,05,08,03,55,12.70
2013,05,08,03,56,12.60
2013,05,08,03,57,12.60
2013,05,08,03,58,12.60
2013,05,08,03,59,12.60
2013,05,08,04,00,12.60
2013,05,08,04,01,12.60
2013,05,08,04,02,12.60
2013,05,08,04,03,12.60
2013,05,08,04,04,12.60
2013,05,08,04,05,12.60
2013,05,08,04,06,12.60
2013,05,08,04,07,12.60
2013,05,08,04,08,12.70
2013,05,08,04,09,12.70
2013,05,08,04,10,12.70
2013,05,08,04,11,12.60
2013,05,08,04,12,12.60
2013,05,08,04,13,12.50
2013,05,08,04,14,12.50
2013,05,08,04,15,12.50
2013,05,08,04,16,12.50
2013,05,08,04,17,12.50
2013,05,08,04,18,12.60
2013,05,08,04,19,12.60
2013,05,08,04,20,12.60
2013,05,08,04,21,12.60
2013,05,08,04,22,12.60
2013,05,08,04,23,12.60
2013,05,08,04,24,12.60
2013,05,08,04,25,12.50
2013,05,08,04,26,12.50
2013,05,08,04,27,12.40
2013,05,08,04,28,12.40
2013,05,08,04,29,12.40
2013,05,08,04,30,12.40
2013,05,08,04,31,12.30
2013,05,08,04,32,12.30
2013,05,08,04,33,12.30
2013,05,08,04,34,12.30
2013,05,08,04,35,12.30
2013,05,08,04,36,12.30
2013,05,08,04,37,12.30
2013,05,08,04,38,12.30
2013,05,08,04,39,12.30
2013,05,08,04,40,12.30
2013,05,08,04,41,12.30
2013,05,08,04,42,12.30
2013,05,08,04,43,12.30
2013,05,08,04,44,12.30
2013,05,08,04,45,12.30
2013,05,08,04,46,12.30
2013,05,08,04,47,12.30
2013,05,08,04,48,12.30
2013,05,08,04,49,12.30
2013,05,08,04,50,12.30
2013,05,08,04,51,12.30
2013,05,08,04,52,12.30
2013,05,08,04,53,12.30
2013,05,08,04,54,12.30
2013,05,08,04,55,12.30
2013,05,08,04,56,12.30
2013,05,08,04,57,12.30
2013,05,08,04,58,12.30
2013,05,08,04,59,12.30
2013,05,08,05,00,12.20
2013,05,08,05,01,12.20
2013,05,08,05,02,12.20
2013,05,08,05,03,12.20
2013,05,08,05,04,12.20
2013,05,08,05,05,12.10
2013,05,08,05,06,12.10
2013,05,08,05,07,12.10
2013,05,08,05,08,12.10
2013,05,08,05,09,12.10
2013,05,08,05,10,12.10
2013,05,08,05,11,12.00
2013,05,08,05,12,12.00
2013,05,08,05,13,11.90
2013,05,08,05,14,11.90
2013,05,08,05,15,11.80
2013,05,08,05,16,11.80
2013,05,08,05,17,11.80
2013,05,08,05,18,11.70
2013,05,08,05,19,11.70
2013,05,08,05,20,11.70
2013,05,08,05,21,11.60
2013,05,08,05,22,11.60
2013,05,08,05,23,11.60
2013,05,08,05,24,11.60
2013,05,08,05,25,11.60
2013,05,08,05,26,11.60
2013,05,08,05,27,11.60
2013,05,08,05,28,11.50
2013,05,08,05,29,11.50
2013,05,08,05,30,11.50
2013,05,08,05,31,11.50
2013,05,08,05,32,11.50
2013,05,08,05,33,11.50
2013,05,08,05,34,11.50
2013,05,08,05,35,11.40
2013,05,08,05,36,11.40
2013,05,08,05,37,11.40
2013,05,08,05,38,11.40
2013,05,08,05,39,11.40
2013,05,08,05,40,11.30
2013,05,08,05,41,11.40
2013,05,08,05,42,11.40
2013,05,08,05,43,11.30
2013,05,08,05,44,11.40
2013,05,08,05,45,11.40
2013,05,08,05,46,11.40
2013,05,08,05,47,11.40
2013,05,08,05,48,11.40
2013,05,08,05,49,11.30
2013,05,08,05,50,11.30
2013,05,08,05,51,11.30
2013,05,08,05,52,11.30
2013,05,08,05,53,11.40
2013,05,08,05,54,11.40
2013,05,08,05,55,11.40
2013,05,08,05,56,11.40
2013,05,08,05,57,11.40
2013,05,08,05,58,11.40
2013,05,08,05,59,11.50
2013,05,08,06,00,11.50
2013,05,08,06,01,11.60
2013,05,08,06,02,11.60
2013,05,08,06,03,11.60
2013,05,08,06,04,11.60
2013,05,08,06,05,11.60
2013,05,08,06,06,11.60
2013,05,08,06,07,11.60
2013,05,08,06,08,11.70
2013,05,08,06,09,11.70
2013,05,08,06,10,11.70
2013,05,08,06,11,11.70
2013,05,08,06,12,11.70
2013,05,08,06,13,11.80
2013,05,08,06,14,11.80
2013,05,08,06,15,11.80
2013,05,08,06,16,11.90
2013,05,08,06,17,11.90
2013,05,08,06,18,11.90
2013,05,08,06,19,12.00
2013,05,08,06,20,12.00
2013,05,08,06,21,12.10
2013,05,08,06,22,12.10
2013,05,08,06,23,12.10
2013,05,08,06,24,12.10
2013,05,08,06,25,12.10
2013,05,08,06,26,12.10
2013,05,08,06,27,12.10
2013,05,08,06,28,12.10
2013,05,08,06,29,12.10
2013,05,08,06,30,12.20
2013,05,08,06,31,12.20
2013,05,08,06,32,12.20
2013,05,08,06,33,12.20
2013,05,08,06,34,12.20
2013,05,08,06,35,12.20
2013,05,08,06,36,12.20
2013,05,08,06,37,12.20
2013,05,08,06,38,12.30
2013,05,08,06,39,12.30
2013,05,08,06,40,12.30
2013,05,08,06,41,12.30
2013,05,08,06,42,12.30
2013,05,08,06,43,12.40
2013,05,08,06,44,12.40
2013,05,08,06,45,12.50
2013,05,08,06,46,12.50
2013,05,08,06,47,12.50
2013,05,08,06,48,12.60
2013,05,08,06,49,12.60
2013,05,08,06,50,12.70
2013,05,08,06,51,12.70
2013,05,08,06,52,12.80
2013,05,08,06,53,12.80
2013,05,08,06,54,12.80
2013,05,08,06,55,12.80
2013,05,08,06,56,12.90
2013,05,08,06,57,13.00
2013,05,08,06,58,13.00
2013,05,08,06,59,13.10
2013,05,08,07,00,13.10
2013,05,08,07,01,13.10
2013,05,08,07,02,13.20
2013,05,08,07,03,13.20
2013,05,08,07,04,13.30
2013,05,08,07,05,13.30
2013,05,08,07,06,13.30
2013,05,08,07,07,13.40
2013,05,08,07,08,13.40
2013,05,08,07,09,13.50
2013,05,08,07,10,13.60
2013,05,08,07,11,13.60
2013,05,08,07,12,13.70
2013,05,08,07,13,13.80
2013,05,08,07,14,13.80
2013,05,08,07,15,13.80
2013,05,08,07,16,13.80
2013,05,08,07,17,13.80
2013,05,08,07,18,13.80
2013,05,08,07,19,13.80
2013,05,08,07,20,13.80
2013,05,08,07,21,13.90
2013,05,08,07,22,13.90
2013,05,08,07,23,13.90
2013,05,08,07,24,13.80
2013,05,08,07,25,13.80
2013,05,08,07,26,13.70
2013,05,08,07,27,13.60
2013,05,08,07,28,13.50
2013,05,08,07,29,13.40
2013,05,08,07,30,13.40
2013,05,08,07,31,13.40
2013,05,08,07,32,13.40
2013,05,08,07,33,13.40
2013,05,08,07,34,13.40
2013,05,08,07,35,13.30
2013,05,08,07,36,13.30
2013,05,08,07,37,13.30
2013,05,08,07,38,13.30
2013,05,08,07,39,13.30
2013,05,08,07,40,13.30
2013,05,08,07,41,13.20
2013,05,08,07,42,13.20
2013,05,08,07,43,13.20
2013,05,08,07,44,13.20
2013,05,08,07,45,13.20
2013,05,08,07,46,13.20
2013,05,08,07,47,13.20
2013,05,08,07,48,13.30
2013,05,08,07,49,13.30
2013,05,08,07,50,13.30
2013,05,08,07,51,13.30
2013,05,08,07,52,13.30
2013,05,08,07,53,13.30
2013,05,08,07,54,13.30
2013,05,08,07,55,13.20
2013,05,08,07,56,13.20
2013,05,08,07,57,13.10
2013,05,08,07,58,13.10
2013,05,08,07,59,13.10
2013,05,08,08,00,13.10
2013,05,08,08,01,13.00
2013,05,08,08,02,13.00
2013,05,08,08,03,12.90
2013,05,08,08,04,12.90
2013,05,08,08,05,12.80
2013,05,08,08,06,12.80
2013,05,08,08,07,12.80
2013,05,08,08,08,12.80
2013,05,08,08,09,12.80
2013,05,08,08,10,12.80
2013,05,08,08,11,12.70
2013,05,08,08,12,12.70
2013,05,08,08,13,12.70
2013,05,08,08,14,12.70
2013,05,08,08,15,12.70
2013,05,08,08,16,12.70
2013,05,08,08,17,12.80
2013,05,08,08,18,12.80
2013,05,08,08,19,12.90
2013,05,08,08,20,12.90
2013,05,08,08,21,12.90
2013,05,08,08,22,12.90
2013,05,08,08,23,12.90
2013,05,08,08,24,13.00
2013,05,08,08,25,13.10
2013,05,08,08,26,13.10
2013,05,08,08,27,13.10
2013,05,08,08,28,13.10
2013,05,08,08,29,13.20
2013,05,08,08,30,13.30
2013,05,08,08,31,13.30
2013,05,08,08,32,13.30
2013,05,08,08,33,13.30
2013,05,08,08,34,13.30
2013,05,08,08,35,13.30
2013,05,08,08,36,13.40
2013,05,08,08,37,13.40
2013,05,08,08,38,13.40
2013,05,08,08,39,13.50
2013,05,08,08,40,13.50
2013,05,08,08,41,13.50
2013,05,08,08,42,13.50
2013,05,08,08,43,13.50
2013,05,08,08,44,13.50
2013,05,08,08,45,13.50
2013,05,08,08,46,13.50
2013,05,08,08,47,13.50
2013,05,08,08,48,13.60
2013,05,08,08,49,13.60
2013,05,08,08,50,13.70
2013,05,08,08,51,13.80
2013,05,08,08,52,13.80
2013,05,08,08,53,13.80
2013,05,08,08,54,13.90
2013,05,08,08,55,13.90
2013,05,08,08,56,14.10
2013,05,08,08,57,14.20
2013,05,08,08,58,14.30
2013,05,08,08,59,14.50
2013,05,08,09,00,14.60
2013,05,08,09,01,14.80
2013,05,08,09,02,15.00
2013,05,08,09,03,15.00
2013,05,08,09,04,15.00
2013,05,08,09,05,15.20
2013,05,08,09,06,15.30
2013,05,08,09,07,15.50
2013,05,08,09,08,15.70
2013,05,08,09,09,15.80
2013,05,08,09,10,15.80
2013,05,08,09,11,15.70
2013,05,08,09,12,15.60
2013,05,08,09,13,15.50
2013,05,08,09,14,15.40
2013,05,08,09,15,15.30
2013,05,08,09,16,15.00
2013,05,08,09,17,15.00
2013,05,08,09,18,14.80
2013,05,08,09,19,14.60
2013,05,08,09,20,14.50
2013,05,08,09,21,14.40
2013,05,08,09,22,14.30
2013,05,08,09,23,14.30
2013,05,08,09,24,14.30
2013,05,08,09,25,14.20
2013,05,08,09,26,14.20
2013,05,08,09,27,14.20
2013,05,08,09,28,14.20
2013,05,08,09,29,14.20
2013,05,08,09,30,14.20
2013,05,08,09,31,14.20
2013,05,08,09,32,14.30
2013,05,08,09,33,14.60
2013,05,08,09,34,15.00
2013,05,08,09,35,15.20
2013,05,08,09,36,15.30
2013,05,08,09,37,15.40
2013,05,08,09,38,15.50
2013,05,08,09,39,15.60
2013,05,08,09,40,15.80
2013,05,08,09,41,16.00
2013,05,08,09,42,16.00
2013,05,08,09,43,16.10
2013,05,08,09,44,16.30
2013,05,08,09,45,16.40
2013,05,08,09,46,16.50
2013,05,08,09,47,16.50
2013,05,08,09,48,16.40
2013,05,08,09,49,16.30
2013,05,08,09,50,16.10
2013,05,08,09,51,15.80
2013,05,08,09,52,15.60
2013,05,08,09,53,15.40
2013,05,08,09,54,15.20
2013,05,08,09,55,15.00
2013,05,08,09,56,14.90
2013,05,08,09,57,14.60
2013,05,08,09,58,14.40
2013,05,08,09,59,14.50
2013,05,08,10,00,14.50
2013,05,08,10,01,14.40
2013,05,08,10,02,14.40
2013,05,08,10,03,14.40
2013,05,08,10,04,14.30
2013,05,08,10,05,14.30
2013,05,08,10,06,14.30
2013,05,08,10,07,14.20
2013,05,08,10,08,14.20
2013,05,08,10,09,14.10
2013,05,08,10,10,14.00
2013,05,08,10,11,14.00
2013,05,08,10,12,14.00
2013,05,08,10,13,14.10
2013,05,08,10,14,14.20
2013,05,08,10,15,14.20
2013,05,08,10,16,14.20
2013,05,08,10,17,14.30
2013,05,08,10,18,14.40
2013,05,08,10,19,14.40
2013,05,08,10,20,14.40
2013,05,08,10,21,14.50
2013,05,08,10,22,14.60
2013,05,08,10,23,14.70
2013,05,08,10,24,14.70
2013,05,08,10,25,14.60
2013,05,08,10,26,14.50
2013,05,08,10,27,14.50
2013,05,08,10,28,14.50
2013,05,08,10,29,14.50
2013,05,08,10,30,14.50
2013,05,08,10,31,14.60
2013,05,08,10,32,14.60
2013,05,08,10,33,14.60
2013,05,08,10,34,14.60
2013,05,08,10,35,14.50
2013,05,08,10,36,14.50
2013,05,08,10,37,14.50
2013,05,08,10,38,14.40
2013,05,08,10,39,14.40
2013,05,08,10,40,14.30
2013,05,08,10,41,14.30
2013,05,08,10,42,14.30
2013,05,08,10,43,14.30
2013,05,08,10,44,14.30
2013,05,08,10,45,14.30
2013,05,08,10,46,14.30
2013,05,08,10,47,14.20
2013,05,08,10,48,14.20
2013,05,08,10,49,14.10
2013,05,08,10,50,14.10
2013,05,08,10,51,14.10
2013,05,08,10,52,14.10
2013,05,08,10,53,14.10
2013,05,08,10,54,14.10
2013,05,08,10,55,14.00
2013,05,08,10,56,14.00
2013,05,08,10,57,14.00
2013,05,08,10,58,14.10
2013,05,08,10,59,14.10
2013,05,08,11,00,14.10
2013,05,08,11,01,14.10
2013,05,08,11,02,14.00
2013,05,08,11,03,14.00
2013,05,08,11,04,14.00
2013,05,08,11,05,14.10
2013,05,08,11,06,14.00
2013,05,08,11,07,13.90
2013,05,08,11,08,13.90
2013,05,08,11,09,13.90
2013,05,08,11,10,13.80
2013,05,08,11,11,13.80
2013,05,08,11,12,13.80
2013,05,08,11,13,13.90
2013,05,08,11,14,13.80
2013,05,08,11,15,13.80
2013,05,08,11,16,13.90
2013,05,08,11,17,13.90
2013,05,08,11,18,13.90
2013,05,08,11,19,14.00
2013,05,08,11,20,14.00
2013,05,08,11,21,13.90
2013,05,08,11,22,13.90
2013,05,08,11,23,14.00
2013,05,08,11,24,14.00
2013,05,08,11,25,14.10
2013,05,08,11,26,14.10
2013,05,08,11,27,14.10
2013,05,08,11,28,14.10
2013,05,08,11,29,14.10
2013,05,08,11,30,14.20
2013,05,08,11,31,14.30
2013,05,08,11,32,14.30
2013,05,08,11,33,14.30
2013,05,08,11,34,14.30
2013,05,08,11,35,14.20
2013,05,08,11,36,14.20
2013,05,08,11,37,14.20
2013,05,08,11,38,14.20
2013,05,08,11,39,14.20
2013,05,08,11,40,14.20
2013,05,08,11,41,14.20
2013,05,08,11,42,14.20
2013,05,08,11,43,14.30
2013,05,08,11,44,14.30
2013,05,08,11,45,14.30
2013,05,08,11,46,14.40
2013,05,08,11,47,14.30
2013,05,08,11,48,14.30
2013,05,08,11,49,14.30
2013,05,08,11,50,14.30
2013,05,08,11,51,14.30
2013,05,08,11,52,14.30
2013,05,08,11,53,14.20
2013,05,08,11,54,14.20
2013,05,08,11,55,14.20
2013,05,08,11,56,14.20
2013,05,08,11,57,14.30
2013,05,08,11,58,14.30
2013,05,08,11,59,14.30
2013,05,08,12,00,14.30
2013,05,08,12,01,14.30
2013,05,08,12,02,14.30
2013,05,08,12,03,14.30
2013,05,08,12,04,14.40
2013,05,08,12,05,14.50
2013,05,08,12,06,14.50
2013,05,08,12,07,14.50
2013,05,08,12,08,14.50
2013,05,08,12,09,14.60
2013,05,08,12,10,14.60
2013,05,08,12,11,14.60
2013,05,08,12,12,14.60
2013,05,08,12,13,14.60
2013,05,08,12,14,14.50
2013,05,08,12,15,14.50
2013,05,08,12,16,14.60
2013,05,08,12,17,14.60
2013,05,08,12,18,14.60
2013,05,08,12,19,14.80
2013,05,08,12,20,14.70
2013,05,08,12,21,14.70
2013,05,08,12,22,14.70
2013,05,08,12,23,14.70
2013,05,08,12,24,14.70
2013,05,08,12,25,14.70
2013,05,08,12,26,14.70
2013,05,08,12,27,14.70
2013,05,08,12,28,14.70
2013,05,08,12,29,14.70
2013,05,08,12,30,14.60
2013,05,08,12,31,14.60
2013,05,08,12,32,14.60
2013,05,08,12,33,14.60
2013,05,08,12,34,14.60
2013,05,08,12,35,14.70
2013,05,08,12,36,14.70
2013,05,08,12,37,14.80
2013,05,08,12,38,14.90
2013,05,08,12,39,15.00
2013,05,08,12,40,15.00
2013,05,08,12,41,15.00
2013,05,08,12,42,15.20
2013,05,08,12,43,15.40
2013,05,08,12,44,15.40
2013,05,08,12,45,15.50
2013,05,08,12,46,15.50
2013,05,08,12,47,15.60
2013,05,08,12,48,15.50
2013,05,08,12,49,15.50
2013,05,08,12,50,15.40
2013,05,08,12,51,15.40
2013,05,08,12,52,15.40
2013,05,08,12,53,15.50
2013,05,08,12,54,15.50
2013,05,08,12,55,15.50
2013,05,08,12,56,15.50
2013,05,08,12,57,15.40
2013,05,08,12,58,15.20
2013,05,08,12,59,15.00
2013,05,08,13,00,15.00
2013,05,08,13,01,15.00
2013,05,08,13,02,15.00
2013,05,08,13,03,15.00
2013,05,08,13,04,15.00
2013,05,08,13,05,15.00
2013,05,08,13,06,15.10
2013,05,08,13,07,15.20
2013,05,08,13,08,15.10
2013,05,08,13,09,15.20
2013,05,08,13,10,15.30
2013,05,08,13,11,15.40
2013,05,08,13,12,15.40
2013,05,08,13,13,15.50
2013,05,08,13,14,15.50
2013,05,08,13,15,15.50
2013,05,08,13,16,15.40
2013,05,08,13,17,15.50
2013,05,08,13,18,15.60
2013,05,08,13,19,15.60
2013,05,08,13,20,15.70
2013,05,08,13,21,15.60
2013,05,08,13,22,15.60
2013,05,08,13,23,15.50
2013,05,08,13,24,15.60
2013,05,08,13,25,15.70
2013,05,08,13,26,15.80
2013,05,08,13,27,15.80
2013,05,08,13,28,15.70
2013,05,08,13,29,15.70
2013,05,08,13,30,15.70
2013,05,08,13,31,15.60
2013,05,08,13,32,15.60
2013,05,08,13,33,15.50
2013,05,08,13,34,15.50
2013,05,08,13,35,15.40
2013,05,08,13,36,15.40
2013,05,08,13,37,15.40
2013,05,08,13,38,15.40
2013,05,08,13,39,15.40
2013,05,08,13,40,15.30
2013,05,08,13,41,15.20
2013,05,08,13,42,15.20
2013,05,08,13,43,15.30
2013,05,08,13,44,15.20
2013,05,08,13,45,15.20
2013,05,08,13,46,15.20
2013,05,08,13,47,15.10
2013,05,08,13,48,15.00
2013,05,08,13,49,15.10
2013,05,08,13,50,15.20
2013,05,08,13,51,15.00
2013,05,08,13,52,15.00
2013,05,08,13,53,15.00
2013,05,08,13,54,15.00
2013,05,08,13,55,15.00
2013,05,08,13,56,15.00
2013,05,08,13,57,15.10
2013,05,08,13,58,15.30
2013,05,08,13,59,15.30
2013,05,08,14,00,15.30
2013,05,08,14,01,15.40
2013,05,08,14,02,15.40
2013,05,08,14,03,15.50
2013,05,08,14,04,15.50
2013,05,08,14,05,15.50
2013,05,08,14,06,15.50
2013,05,08,14,07,15.40
2013,05,08,14,08,15.40
2013,05,08,14,09,15.30
2013,05,08,14,10,15.40
2013,05,08,14,11,15.40
2013,05,08,14,12,15.40
2013,05,08,14,13,15.40
2013,05,08,14,14,15.50
2013,05,08,14,15,15.60
2013,05,08,14,16,15.60
2013,05,08,14,17,15.70
2013,05,08,14,18,15.80
2013,05,08,14,19,15.90
2013,05,08,14,20,16.00
2013,05,08,14,21,16.10
2013,05,08,14,22,16.20
2013,05,08,14,23,16.20
2013,05,08,14,24,16.20
2013,05,08,14,25,16.20
2013,05,08,14,26,16.10
2013,05,08,14,27,16.00
2013,05,08,14,28,16.00
2013,05,08,14,29,15.90
2013,05,08,14,30,15.80
2013,05,08,14,31,15.80
2013,05,08,14,32,15.80
2013,05,08,14,33,15.80
2013,05,08,14,34,15.80
2013,05,08,14,35,15.80
2013,05,08,14,36,15.80
2013,05,08,14,37,15.80
2013,05,08,14,38,15.80
2013,05,08,14,39,15.80
2013,05,08,14,40,15.70
2013,05,08,14,41,15.70
2013,05,08,14,42,15.70
2013,05,08,14,43,15.70
2013,05,08,14,44,15.70
2013,05,08,14,45,15.70
2013,05,08,14,46,15.70
2013,05,08,14,47,15.70
2013,05,08,14,48,15.70
2013,05,08,14,49,15.70
2013,05,08,14,50,15.70
2013,05,08,14,51,15.70
2013,05,08,14,52,15.70
2013,05,08,14,53,15.80
2013,05,08,14,54,15.90
2013,05,08,14,55,16.00
2013,05,08,14,56,16.00
2013,05,08,14,57,16.00
2013,05,08,14,58,15.90
2013,05,08,14,59,15.90
2013,05,08,15,00,15.90
2013,05,08,15,01,16.00
2013,05,08,15,02,16.00
2013,05,08,15,03,16.00
2013,05,08,15,04,16.10
2013,05,08,15,05,16.10
2013,05,08,15,06,16.10
2013,05,08,15,07,16.20
2013,05,08,15,08,16.10
2013,05,08,15,09,16.10
2013,05,08,15,10,16.10
2013,05,08,15,11,16.20
2013,05,08,15,12,16.30
2013,05,08,15,13,16.30
2013,05,08,15,14,16.30
2013,05,08,15,15,16.30
2013,05,08,15,16,16.30
2013,05,08,15,17,16.30
2013,05,08,15,18,16.30
2013,05,08,15,19,16.30
2013,05,08,15,20,16.20
2013,05,08,15,21,16.20
2013,05,08,15,22,16.20
2013,05,08,15,23,16.20
2013,05,08,15,24,16.10
2013,05,08,15,25,16.10
2013,05,08,15,26,16.10
2013,05,08,15,27,16.10
2013,05,08,15,28,16.10
2013,05,08,15,29,16.00
2013,05,08,15,30,16.00
2013,05,08,15,31,16.00
2013,05,08,15,32,15.90
2013,05,08,15,33,15.90
2013,05,08,15,34,15.90
2013,05,08,15,35,15.90
2013,05,08,15,36,15.90
2013,05,08,15,37,15.90
2013,05,08,15,38,15.90
2013,05,08,15,39,15.90
2013,05,08,15,40,15.90
2013,05,08,15,41,15.90
2013,05,08,15,42,15.90
2013,05,08,15,43,16.00
2013,05,08,15,44,16.10
2013,05,08,15,45,16.10
2013,05,08,15,46,16.20
2013,05,08,15,47,16.20
2013,05,08,15,48,16.20
2013,05,08,15,49,16.30
2013,05,08,15,50,16.30
2013,05,08,15,51,16.30
2013,05,08,15,52,16.30
2013,05,08,15,53,16.40
2013,05,08,15,54,16.40
2013,05,08,15,55,16.40
2013,05,08,15,56,16.40
2013,05,08,15,57,16.50
2013,05,08,15,58,16.50
2013,05,08,15,59,16.40
2013,05,08,16,00,16.40
2013,05,08,16,01,16.40
2013,05,08,16,02,16.40
2013,05,08,16,03,16.40
2013,05,08,16,04,16.30
2013,05,08,16,05,16.30
2013,05,08,16,06,16.30
2013,05,08,16,07,16.20
2013,05,08,16,08,16.20
2013,05,08,16,09,16.20
2013,05,08,16,10,16.20
2013,05,08,16,11,16.30
2013,05,08,16,12,16.30
2013,05,08,16,13,16.30
2013,05,08,16,14,16.30
2013,05,08,16,15,16.30
2013,05,08,16,16,16.30
2013,05,08,16,17,16.30
2013,05,08,16,18,16.30
2013,05,08,16,19,16.30
2013,05,08,16,20,16.30
2013,05,08,16,21,16.20
2013,05,08,16,22,16.10
2013,05,08,16,23,16.10
2013,05,08,16,24,16.10
2013,05,08,16,25,16.20
2013,05,08,16,26,16.20
2013,05,08,16,27,16.20
2013,05,08,16,28,16.20
2013,05,08,16,29,16.20
2013,05,08,16,30,16.20
2013,05,08,16,31,16.30
2013,05,08,16,32,16.20
2013,05,08,16,33,16.20
2013,05,08,16,34,16.20
2013,05,08,16,35,16.20
2013,05,08,16,36,16.30
2013,05,08,16,37,16.40
2013,05,08,16,38,16.50
2013,05,08,16,39,16.50
2013,05,08,16,40,16.60
2013,05,08,16,41,16.70
2013,05,08,16,42,16.70
2013,05,08,16,43,16.80
2013,05,08,16,44,16.80
2013,05,08,16,45,16.80
2013,05,08,16,46,16.80
2013,05,08,16,47,16.90
2013,05,08,16,48,17.00
2013,05,08,16,49,17.00
2013,05,08,16,50,17.10
2013,05,08,16,51,17.10
2013,05,08,16,52,17.10
2013,05,08,16,53,17.10
2013,05,08,16,54,17.10
2013,05,08,16,55,17.00
2013,05,08,16,56,16.90
2013,05,08,16,57,16.90
2013,05,08,16,58,16.90
2013,05,08,16,59,16.90
2013,05,08,17,00,16.90
2013,05,08,17,01,17.00
2013,05,08,17,02,17.00
2013,05,08,17,03,17.00
2013,05,08,17,04,17.00
2013,05,08,17,05,17.10
2013,05,08,17,06,17.10
2013,05,08,17,07,17.10
2013,05,08,17,08,17.10
2013,05,08,17,09,17.10
2013,05,08,17,10,17.10
2013,05,08,17,11,17.10
2013,05,08,17,12,17.10
2013,05,08,17,13,17.10
2013,05,08,17,14,17.10
2013,05,08,17,15,17.10
2013,05,08,17,16,17.20
2013,05,08,17,17,17.10
2013,05,08,17,18,17.10
2013,05,08,17,19,17.10